SCP
0 0 0 0 0 0 0 0 0 0 0 0 0 0 0 0 0 0 0 0 0 0 0 -0 -0 0 0 0 0 -0 0 0 -0 -0 -0 0 0 0 -0 -0 0 -0 0
0 0 0 0 0 0 0 0 0 -0 0 -0 -0 -0 -0 -0 -0 0 0 0 0 0 0 0 0 0 -0 -0 0 0 -0 -0 -0 -0 0 0 0 0 0 0 -0 -0 -0
0 0 0 0 0 0 -0 -0 0 -0 -0 -0 -0 -0 0 -0 -0 -0 0 0 -0 0 0 0 0 0 0 0 -0 -0 -0 -0 -0 0 0 0 0 0 0 -0 0 0 0
0 0 0 0 0 0 0 0 0 -0 0 0 0 -0 -0 0 -0 -0 -0 -0 -0 -0 0 0 0 0 -0 0 -0 -0 -0 0 0 0 0 0 0 0 0 0 0 0 0
0 0 0 0 0 0 0 0 0 0 0 0 0 -0 -0 -0 -0 0 0 -0 -0 0 -0 -0 -0 -0 -0 -0 -0 -0 -0 0 0 0 0 0 0 0 0 0 0 0 0
0 0 0 0 0 0 0 0 0 0 0 0 0 0 0 0 0 0 0 0 0 0 0 0 -0 -0 0 0 -0 -0 -0 0 0 0 0 0 0 0 0 0 0 0 0
0 0 0 0 0 0 0 0 0 0 0 0 0 0 0 0 0 0 0 0 0 0 0 0 0 0 0 0 0 0 0 0 0 0 0 0 0 0 0 0 0 0 0
0 0 0 0 0 0 0 0 0 0 0 0 0 0 0 0 0 0 0 0 0 0 0 0 0 0 0 0 0 0 0 0 0 0 0 0 0 0 0 0 0 0 0
0 0 0 0 0 0 0 0 0 0 0 0 0 0 0 0 0 0 0 0 0 0 0 0 0 0 0 0 0 0 0 0 0 0 0 0 0 0 0 0 0 0 0
0 0 0 0 0 0 0 0 0 0 0 0 0 0 0 0 0 0 0 0 0 0 0 0 0 0 0 0 0 0 0 0 0 0 0 0 0 0 0 0 0 0 0
0 0 0 0 0 0 0 0 0 0 0 0 0 0 0 0 0 0 0 0 0 0 0 0 0 0 0 0 0 0 0 0 0 0 0 0 0 0 0 0 0 0 0
0 0 0 0 0 0 0 0 0 0 0 0 0 0 0 0 0 0 0 0 0 0 0 0 0 0 0 0 0 0 0 0 0 0 0 0 0 0 0 0 0 0 0
0 0 0 0 0 0 0 0 0 0 0 0 0 0 0 0 0 0 0 0 0 0 0 0 0 0 0 0 0 0 0 0 0 0 0 0 0 0 0 0 0 0 0
0 0 0 0 0 0 0 0 0 0 0 0 0 0 0 0 0 0 0 0 0 0 0 0 0 0 0 0 0 0 0 0 0 0 0 0 0 0 0 0 0 0 0
0 0 0 0 0 0 0 0 0 0 0 0 0 0 0 0 0 0 0 0 0 0 0 0 0 0 0 0 0 0 0 0 0 0 0 0 0 0 0 0 0 0 0
0 0 0 0 0 0 -0 0 -0 -0 -0 -0 0 0 0 0 0 0 0 0 0 0 0 0 0 0 0 0 0 0 0 0 0 0 0 0 0 0 0 0 0 0 0
0 0 0 0 0 0 0 0 0 0 0 -0 -0 -0 -0 0 0 0 0 0 0 0 0 0 0 0 0 0 0 0 0 0 0 0 0 0 0 0 0 0 0 0 0
0 0 0 0 0 0 0 0 0 0 0 0 -0 -0 0 0 0 0 0 0 0 0 0 0 0 0 0 0 0 0 0 0 0 0 0 0 0 0 0 0 0 0 0
0 0 0 0 0 0 0 0 0 0 0 0 0 0 0 0 0 0 0 0 0 0 0 0 0 0 0 0 0 0 0 0 0 0 0 0 0 0 0 0 0 0 0
0 0 0 0 0 0 0 0 0 0 0 0 0 0 0 0 0 0 0 0 0 0 0 0 0 0 0 0 0 0 0 0 0 0 0 0 0 0 0 0 0 0 0
0 0 0 0 0 0 0 0 0 0 0 0 0 0 0 0 0 0 0 0 0 0 0 0 0 0 0 0 0 0 0 0 0 0 0 0 0 0 0 0 0 0 0
0 0 0 0 0 0 0 0 0 0 0 0 0 0 0 0 0 0 0 0 0 0 0 0 0 0 0 0 0 0 0 0 0 0 0 0 0 0 0 0 0 0 0
0 0 0 0 -0 -0 -0 0 0 0 0 0 0 0 0 0 -0 -0 0 0 0 0 0 0 0 0 0 0 0 0 0 0 0 0 0 0 0 0 0 0 0 0 0
-0 0 0 0 0 0 0 0 -0 -0 0 0 0 0 -0 -0 0 0 0 -0 -0 -0 0 0 0 0 0 0 0 0 0 0 0 0 0 0 0 0 0 0 0 0 0
0 0 0 0 0 0 -0 0 0 0 0 0 0 -0 0 0 0 0 -0 -0 -0 0 0 0 0 0 0 0 0 0 0 0 0 0 0 0 0 0 0 0 0 0 0
0 0 0 0 0 0 0 0 0 0 0 0 0 0 -0 -0 -0 -0 0 0 0 0 0 0 0 0 0 0 0 0 0 0 0 0 0 0 0 0 0 0 0 0 0
Wind_Speed_500mb
33 34 40 43 42 35 30 29 29 25 18 16 19 21 15 13 17 19 18 23 20 15 13 8 10 12 15 13 12 13 15 18 22 20 26 24 22 23 23 21 6 5 7
30 40 37 32 34 34 30 27 23 11 9 11 17 19 18 16 14 12 15 13 12 10 14 9 8 8 11 14 15 18 18 18 18 23 26 20 22 23 18 8 5 1 3
34 33 26 35 42 28 32 27 21 17 6 9 13 16 21 21 15 14 14 11 12 9 10 13 11 13 15 16 18 16 13 21 22 23 21 22 21 19 7 6 3 4 9
29 24 29 38 32 30 28 32 19 16 11 6 14 17 17 15 15 12 10 10 12 11 11 12 11 12 14 19 20 16 16 17 13 14 18 20 19 10 10 3 6 10 14
23 28 36 40 36 28 25 31 28 15 13 14 14 12 13 16 20 15 12 9 5 3 5 7 12 16 21 17 11 12 13 8 9 14 16 15 12 11 8 7 11 15 12
24 30 36 33 35 31 26 30 32 29 21 18 17 20 21 19 22 19 15 13 8 4 7 8 8 13 11 7 8 11 11 9 12 11 15 17 15 12 8 9 13 15 18
27 28 31 39 42 35 31 29 28 28 22 21 17 16 15 13 15 15 11 9 9 6 6 10 11 15 17 16 15 11 13 11 11 13 12 11 13 11 11 13 14 12 11
25 28 31 33 38 36 33 34 35 36 35 36 33 30 28 25 21 18 18 19 18 17 16 24 20 21 16 17 21 18 17 17 19 13 9 8 8 10 12 14 23 24 20
27 27 27 26 26 30 29 30 28 30 31 33 29 33 46 45 38 30 25 27 32 32 27 21 21 19 22 29 21 20 19 19 29 27 24 19 16 17 20 20 21 22 25
26 23 24 29 33 36 36 45 43 34 34 34 39 44 39 43 44 25 25 28 31 32 27 25 26 33 34 31 20 19 20 16 14 12 16 21 19 17 18 23 19 19 23
18 19 21 25 32 34 34 39 53 53 56 51 47 43 41 39 47 48 36 20 25 24 25 23 24 30 30 27 24 19 18 16 18 19 18 18 18 16 17 22 20 18 18
18 18 23 32 31 23 30 35 32 28 27 31 30 32 31 32 42 42 43 40 35 26 25 20 22 21 20 20 19 19 17 17 22 17 18 22 24 23 22 21 20 20 20
23 30 31 29 24 24 31 34 33 32 31 33 34 34 33 33 32 38 35 33 31 22 19 22 19 20 23 23 24 25 27 27 23 22 23 20 24 25 28 26 28 26 29
27 27 29 26 25 23 24 35 40 35 31 28 29 31 33 29 30 28 22 23 23 23 22 23 26 26 27 27 25 26 24 26 26 24 21 24 24 25 29 30 29 25 24
24 27 29 23 23 27 35 37 31 40 37 29 21 24 24 27 30 28 25 21 16 20 20 18 20 21 19 21 23 25 25 25 26 25 25 24 23 26 28 30 30 27 26
23 24 22 24 25 25 21 23 32 37 36 28 25 23 19 22 23 23 23 20 16 17 16 17 19 22 22 22 23 25 26 27 26 26 25 26 27 29 30 30 30 29 30
17 17 20 22 21 22 21 21 21 25 31 34 29 27 26 25 24 23 21 18 15 15 13 16 18 20 21 22 24 25 28 30 28 26 26 26 27 28 30 30 31 31 30
18 20 17 18 20 21 21 19 19 20 20 22 29 31 26 23 21 19 19 24 19 22 19 18 19 20 20 21 22 25 28 32 30 27 26 27 29 30 31 31 31 33 34
13 13 15 15 19 17 16 16 16 18 19 20 21 26 30 31 30 26 25 21 21 20 19 19 19 19 20 20 21 25 29 32 30 28 28 30 31 31 31 32 33 34 35
10 13 20 17 17 14 15 15 16 17 18 19 21 26 21 23 23 24 25 23 21 21 20 20 20 19 20 21 22 25 27 29 29 29 30 32 32 31 31 33 33 34 34
10 15 18 13 12 13 14 14 15 16 17 17 17 28 26 24 22 23 23 22 22 21 21 21 20 19 19 21 21 23 25 26 28 29 31 32 32 32 31 31 31 32 33
12 12 13 12 11 11 11 13 14 15 16 15 16 20 29 20 20 21 21 20 20 21 21 21 21 20 19 20 22 24 24 25 28 32 32 31 32 30 31 31 32 32 33
9 12 12 11 11 14 12 12 13 14 15 15 14 14 15 16 17 18 18 18 19 19 20 21 22 20 20 21 22 23 24 27 27 30 31 30 30 31 31 31 31 33 34
7 10 12 12 12 9 10 12 13 18 16 14 14 13 13 14 15 17 16 16 16 17 18 19 21 22 22 22 21 21 23 27 30 24 28 28 28 29 29 31 30 32 33
5 12 9 10 10 10 11 10 12 13 13 13 12 11 11 12 13 14 13 13 14 15 17 18 20 21 22 23 22 23 26 29 31 28 23 26 28 29 28 29 31 30 33
11 6 9 8 11 10 10 9 10 10 11 11 11 10 9 9 11 12 11 12 12 13 15 16 18 20 20 21 23 25 26 27 28 27 30 24 25 28 26 28 31 29 31
Wind_Direction_500mb
343 346 342 339 339 339 331 326 325 311 327 1 22 21 7 18 28 30 30 54 53 74 64 36 342 323 322 325 307 297 315 314 308 307 315 319 327 324 321 328 6 56 320
350 346 351 355 360 355 350 342 340 340 350 4 5 9 10 15 15 4 10 22 43 29 15 18 12 350 344 326 325 316 310 315 311 310 311 326 328 331 332 79 134 64 331
354 359 355 359 1 6 3 1 5 334 332 13 10 8 5 6 355 344 333 330 325 321 324 348 344 335 327 312 311 315 311 310 315 316 325 325 329 339 85 84 1 318 343
8 3 360 352 3 15 15 19 25 18 53 30 4 358 354 352 348 344 321 312 301 297 307 314 325 324 320 334 329 316 320 313 342 327 336 339 341 357 133 51 350 342 330
18 9 359 15 20 25 24 25 38 53 31 6 5 13 13 26 38 40 39 10 16 5 343 343 314 319 321 321 333 329 343 8 354 359 12 15 21 52 68 30 349 341 353
14 6 10 28 32 34 23 23 36 39 46 58 47 60 50 41 37 37 48 25 29 56 47 14 330 342 353 10 359 41 39 9 359 11 40 42 46 51 35 15 0 9 13
14 13 22 30 40 42 41 42 47 53 50 48 44 36 33 24 7 15 37 21 48 77 72 53 45 62 67 53 35 20 20 17 25 56 47 38 32 28 8 9 353 344 359
29 32 38 35 40 41 41 40 54 56 63 66 60 56 55 59 51 44 57 63 68 82 88 96 72 58 51 71 36 31 36 40 55 62 46 24 21 24 3 332 337 349 2
28 24 30 30 22 35 36 46 59 57 54 52 50 53 65 61 57 67 75 70 77 87 89 71 65 46 64 77 61 58 57 61 60 65 63 57 50 41 22 9 4 359 9
21 36 27 33 51 64 58 57 59 59 58 57 67 79 66 64 53 65 74 63 86 83 70 64 71 82 76 75 70 60 58 41 31 17 5 10 14 6 1 358 344 354 358
20 35 43 57 79 73 56 65 69 66 74 74 74 70 61 57 53 59 85 85 75 67 73 70 79 75 71 67 62 48 37 30 35 8 352 4 355 348 359 338 341 338 352
46 54 66 85 91 67 61 53 54 60 50 49 55 59 48 52 56 60 70 79 87 73 72 69 60 57 51 43 34 25 20 9 351 348 14 22 12 6 358 346 329 329 322
76 78 81 86 79 66 52 48 48 44 46 53 59 60 56 56 58 51 56 61 64 68 68 56 49 42 33 24 18 14 16 3 359 3 3 2 1 354 348 348 338 317 326
85 81 83 76 73 57 45 57 47 63 48 49 51 47 52 50 55 53 49 45 44 42 36 32 41 34 28 30 26 16 12 13 14 6 1 358 355 358 360 357 354 355 339
82 75 74 75 71 63 60 57 53 47 48 48 43 33 44 44 46 44 41 39 29 33 53 36 37 29 27 25 24 23 18 17 12 9 5 1 0 356 356 356 358 355 348
92 73 78 77 53 52 52 41 35 32 32 36 43 44 27 25 21 14 8 12 29 53 36 33 30 29 31 26 21 17 13 11 8 3 1 357 354 351 350 350 351 352 349
70 68 65 55 52 44 34 36 27 19 24 29 37 34 32 28 23 23 27 31 21 40 32 30 27 25 22 19 16 12 9 3 1 358 356 355 354 353 351 350 350 349 349
69 52 53 45 29 21 28 31 34 39 40 27 19 24 24 24 20 24 43 47 35 41 40 34 29 24 20 17 13 7 6 2 5 6 3 360 357 356 354 355 354 353 352
61 50 32 13 14 19 28 35 37 35 35 30 26 17 16 30 29 30 45 43 36 33 30 25 23 19 15 9 5 3 8 4 8 9 5 1 358 358 358 358 355 356 356
50 12 3 353 18 34 35 36 32 29 27 24 23 23 29 28 29 29 30 34 35 30 27 25 18 17 13 9 6 6 6 5 6 6 4 2 1 1 360 358 358 359 359
12 358 11 25 29 33 32 30 27 23 19 17 14 20 32 37 26 25 24 26 28 26 23 25 18 15 11 8 6 6 7 5 5 5 5 3 2 2 2 1 2 3 357
7 19 19 28 31 25 31 24 22 19 16 15 13 357 27 25 25 22 23 27 28 26 26 25 23 17 12 10 8 10 6 4 3 5 5 3 360 4 3 3 4 3 2
24 18 21 17 14 26 21 22 21 16 12 11 13 11 14 18 20 22 21 24 24 28 28 29 28 22 19 16 13 11 4 3 3 359 4 2 2 7 5 5 3 3 4
23 21 20 23 20 28 16 17 12 11 19 9 7 10 11 13 14 13 20 21 24 24 29 28 29 27 25 24 16 13 4 9 12 3 10 2 3 4 6 4 6 2 4
7 18 14 3 4 4 7 9 7 10 8 9 6 8 4 9 9 11 13 18 20 25 22 27 25 21 18 17 13 10 10 9 11 16 22 4 4 8 7 5 8 5 6
256 306 353 345 346 341 341 342 349 358 359 0 3 1 1 3 1 5 8 12 18 16 23 17 16 17 14 8 10 9 6 8 12 23 34 6 11 4 18 8 10 10 10
Wind_Speed_850mb
33 34 40 43 42 35 30 29 29 25 18 16 19 21 15 13 17 19 18 23 20 15 13 8 10 12 15 13 12 13 15 18 22 20 26 24 22 23 23 21 6 5 7
30 40 37 32 34 34 30 27 23 11 9 11 17 19 18 16 14 12 15 13 12 10 14 9 8 8 11 14 15 18 18 18 18 23 26 20 22 23 18 8 5 1 3
34 33 26 35 42 28 32 27 21 17 6 9 13 16 21 21 15 14 14 11 12 9 10 13 11 13 15 16 18 16 13 21 22 23 21 22 21 19 7 6 3 4 9
29 24 29 38 32 30 28 32 19 16 11 6 14 17 17 15 15 12 10 10 12 11 11 12 11 12 14 19 20 16 16 17 13 14 18 20 19 10 10 3 6 10 14
23 28 36 40 36 28 25 31 28 15 13 14 14 12 13 16 20 15 12 9 5 3 5 7 12 16 21 17 11 12 13 8 9 14 16 15 12 11 8 7 11 15 12
24 30 36 33 35 31 26 30 32 29 21 18 17 20 21 19 22 19 15 13 8 4 7 8 8 13 11 7 8 11 11 9 12 11 15 17 15 12 8 9 13 15 18
27 28 31 39 42 35 31 29 28 28 22 21 17 16 15 13 15 15 11 9 9 6 6 10 11 15 17 16 15 11 13 11 11 13 12 11 13 11 11 13 14 12 11
25 28 31 33 38 36 33 34 35 36 35 36 33 30 28 25 21 18 18 19 18 17 16 24 20 21 16 17 21 18 17 17 19 13 9 8 8 10 12 14 23 24 20
27 27 27 26 26 30 29 30 28 30 31 33 29 33 46 45 38 30 25 27 32 32 27 21 21 19 22 29 21 20 19 19 29 27 24 19 16 17 20 20 21 22 25
26 23 24 29 33 36 36 45 43 34 34 34 39 44 39 43 44 25 25 28 31 32 27 25 26 33 34 31 20 19 20 16 14 12 16 21 19 17 18 23 19 19 23
18 19 21 25 32 34 34 39 53 53 56 51 47 43 41 39 47 48 36 20 25 24 25 23 24 30 30 27 24 19 18 16 18 19 18 18 18 16 17 22 20 18 18
18 18 23 32 31 23 30 35 32 28 27 31 30 32 31 32 42 42 43 40 35 26 25 20 22 21 20 20 19 19 17 17 22 17 18 22 24 23 22 21 20 20 20
23 30 31 29 24 24 31 34 33 32 31 33 34 34 33 33 32 38 35 33 31 22 19 22 19 20 23 23 24 25 27 27 23 22 23 20 24 25 28 26 28 26 29
27 27 29 26 25 23 24 35 40 35 31 28 29 31 33 29 30 28 22 23 23 23 22 23 26 26 27 27 25 26 24 26 26 24 21 24 24 25 29 30 29 25 24
24 27 29 23 23 27 35 37 31 40 37 29 21 24 24 27 30 28 25 21 16 20 20 18 20 21 19 21 23 25 25 25 26 25 25 24 23 26 28 30 30 27 26
23 24 22 24 25 25 21 23 32 37 36 28 25 23 19 22 23 23 23 20 16 17 16 17 19 22 22 22 23 25 26 27 26 26 25 26 27 29 30 30 30 29 30
17 17 20 22 21 22 21 21 21 25 31 34 29 27 26 25 24 23 21 18 15 15 13 16 18 20 21 22 24 25 28 30 28 26 26 26 27 28 30 30 31 31 30
18 20 17 18 20 21 21 19 19 20 20 22 29 31 26 23 21 19 19 24 19 22 19 18 19 20 20 21 22 25 28 32 30 27 26 27 29 30 31 31 31 33 34
13 13 15 15 19 17 16 16 16 18 19 20 21 26 30 31 30 26 25 21 21 20 19 19 19 19 20 20 21 25 29 32 30 28 28 30 31 31 31 32 33 34 35
10 13 20 17 17 14 15 15 16 17 18 19 21 26 21 23 23 24 25 23 21 21 20 20 20 19 20 21 22 25 27 29 29 29 30 32 32 31 31 33 33 34 34
10 15 18 13 12 13 14 14 15 16 17 17 17 28 26 24 22 23 23 22 22 21 21 21 20 19 19 21 21 23 25 26 28 29 31 32 32 32 31 31 31 32 33
12 12 13 12 11 11 11 13 14 15 16 15 16 20 29 20 20 21 21 20 20 21 21 21 21 20 19 20 22 24 24 25 28 32 32 31 32 30 31 31 32 32 33
9 12 12 11 11 14 12 12 13 14 15 15 14 14 15 16 17 18 18 18 19 19 20 21 22 20 20 21 22 23 24 27 27 30 31 30 30 31 31 31 31 33 34
7 10 12 12 12 9 10 12 13 18 16 14 14 13 13 14 15 17 16 16 16 17 18 19 21 22 22 22 21 21 23 27 30 24 28 28 28 29 29 31 30 32 33
5 12 9 10 10 10 11 10 12 13 13 13 12 11 11 12 13 14 13 13 14 15 17 18 20 21 22 23 22 23 26 29 31 28 23 26 28 29 28 29 31 30 33
11 6 9 8 11 10 10 9 10 10 11 11 11 10 9 9 11 12 11 12 12 13 15 16 18 20 20 21 23 25 26 27 28 27 30 24 25 28 26 28 31 29 31
Wind_Direction_850mb
343 346 342 339 339 339 331 326 325 311 327 1 22 21 7 18 28 30 30 54 53 74 64 36 342 323 322 325 307 297 315 314 308 307 315 319 327 324 321 328 6 56 320
350 346 351 355 360 355 350 342 340 340 350 4 5 9 10 15 15 4 10 22 43 29 15 18 12 350 344 326 325 316 310 315 311 310 311 326 328 331 332 79 134 64 331
354 359 355 359 1 6 3 1 5 334 332 13 10 8 5 6 355 344 333 330 325 321 324 348 344 335 327 312 311 315 311 310 315 316 325 325 329 339 85 84 1 318 343
8 3 360 352 3 15 15 19 25 18 53 30 4 358 354 352 348 344 321 312 301 297 307 314 325 324 320 334 329 316 320 313 342 327 336 339 341 357 133 51 350 342 330
18 9 359 15 20 25 24 25 38 53 31 6 5 13 13 26 38 40 39 10 16 5 343 343 314 319 321 321 333 329 343 8 354 359 12 15 21 52 68 30 349 341 353
14 6 10 28 32 34 23 23 36 39 46 58 47 60 50 41 37 37 48 25 29 56 47 14 330 342 353 10 359 41 39 9 359 11 40 42 46 51 35 15 0 9 13
14 13 22 30 40 42 41 42 47 53 50 48 44 36 33 24 7 15 37 21 48 77 72 53 45 62 67 53 35 20 20 17 25 56 47 38 32 28 8 9 353 344 359
29 32 38 35 40 41 41 40 54 56 63 66 60 56 55 59 51 44 57 63 68 82 88 96 72 58 51 71 36 31 36 40 55 62 46 24 21 24 3 332 337 349 2
28 24 30 30 22 35 36 46 59 57 54 52 50 53 65 61 57 67 75 70 77 87 89 71 65 46 64 77 61 58 57 61 60 65 63 57 50 41 22 9 4 359 9
21 36 27 33 51 64 58 57 59 59 58 57 67 79 66 64 53 65 74 63 86 83 70 64 71 82 76 75 70 60 58 41 31 17 5 10 14 6 1 358 344 354 358
20 35 43 57 79 73 56 65 69 66 74 74 74 70 61 57 53 59 85 85 75 67 73 70 79 75 71 67 62 48 37 30 35 8 352 4 355 348 359 338 341 338 352
46 54 66 85 91 67 61 53 54 60 50 49 55 59 48 52 56 60 70 79 87 73 72 69 60 57 51 43 34 25 20 9 351 348 14 22 12 6 358 346 329 329 322
76 78 81 86 79 66 52 48 48 44 46 53 59 60 56 56 58 51 56 61 64 68 68 56 49 42 33 24 18 14 16 3 359 3 3 2 1 354 348 348 338 317 326
85 81 83 76 73 57 45 57 47 63 48 49 51 47 52 50 55 53 49 45 44 42 36 32 41 34 28 30 26 16 12 13 14 6 1 358 355 358 360 357 354 355 339
82 75 74 75 71 63 60 57 53 47 48 48 43 33 44 44 46 44 41 39 29 33 53 36 37 29 27 25 24 23 18 17 12 9 5 1 0 356 356 356 358 355 348
92 73 78 77 53 52 52 41 35 32 32 36 43 44 27 25 21 14 8 12 29 53 36 33 30 29 31 26 21 17 13 11 8 3 1 357 354 351 350 350 351 352 349
70 68 65 55 52 44 34 36 27 19 24 29 37 34 32 28 23 23 27 31 21 40 32 30 27 25 22 19 16 12 9 3 1 358 356 355 354 353 351 350 350 349 349
69 52 53 45 29 21 28 31 34 39 40 27 19 24 24 24 20 24 43 47 35 41 40 34 29 24 20 17 13 7 6 2 5 6 3 360 357 356 354 355 354 353 352
61 50 32 13 14 19 28 35 37 35 35 30 26 17 16 30 29 30 45 43 36 33 30 25 23 19 15 9 5 3 8 4 8 9 5 1 358 358 358 358 355 356 356
50 12 3 353 18 34 35 36 32 29 27 24 23 23 29 28 29 29 30 34 35 30 27 25 18 17 13 9 6 6 6 5 6 6 4 2 1 1 360 358 358 359 359
12 358 11 25 29 33 32 30 27 23 19 17 14 20 32 37 26 25 24 26 28 26 23 25 18 15 11 8 6 6 7 5 5 5 5 3 2 2 2 1 2 3 357
7 19 19 28 31 25 31 24 22 19 16 15 13 357 27 25 25 22 23 27 28 26 26 25 23 17 12 10 8 10 6 4 3 5 5 3 360 4 3 3 4 3 2
24 18 21 17 14 26 21 22 21 16 12 11 13 11 14 18 20 22 21 24 24 28 28 29 28 22 19 16 13 11 4 3 3 359 4 2 2 7 5 5 3 3 4
23 21 20 23 20 28 16 17 12 11 19 9 7 10 11 13 14 13 20 21 24 24 29 28 29 27 25 24 16 13 4 9 12 3 10 2 3 4 6 4 6 2 4
7 18 14 3 4 4 7 9 7 10 8 9 6 8 4 9 9 11 13 18 20 25 22 27 25 21 18 17 13 10 10 9 11 16 22 4 4 8 7 5 8 5 6
256 306 353 345 346 341 341 342 349 358 359 0 3 1 1 3 1 5 8 12 18 16 23 17 16 17 14 8 10 9 6 8 12 23 34 6 11 4 18 8 10 10 10